User: anonymous   Login
Location: El Centro
(32.7920°N, 115.5620°W)
Time: 12:50:15
(UTC-07:00)
Language:

Hamsat - Orbit

View from above orbital plane
View from above orbital plane
View from above satellite
View from above satellite

Ground track
Ground track

The orbit data is extracted from the following two-line orbital elements,

1 28650U 05017B   16241.94316898 +.00000506 +00000-0 +60116-4 0  9995
2 28650 097.6145 220.9101 0024308 022.0786 338.1472 14.88373693612629
Epoch (UTC): 28 August 2016 22:38:09
Eccentricity: 0.0024308
inclination: 97.6145°
perigee height: 586 km
apogee height: 620 km
right ascension of ascending node: 220.9101°
argument of perigee: 22.0786°
revolutions per day: 14.88373693
mean anomaly at epoch: 338.1472°
orbit number at epoch: 61262

The dashed part of the orbit path shows where the satellite is in the earth's shadow,  

DLR